Overview Statistics Trail Chart Weather Telemetry Raw packets
 

This is the latest recevied weather packets stored in our database for station/object KK4MOR. If no packets are shown the sender has not sent any weather packets the latest 10 day(s).

<< 28 29 30 31 32 33 34 >>
Time Temp. Humidity Pressure Rain* Wind** Luminosity Snow
1787951757 30.56° C 53% 1013.5 hPa 0 mm - - -
1787950871 30° C 55% 1013.6 hPa 0 mm - - -
1787949955 30.56° C 56% 1013.6 hPa 0 mm - - -
1787949051 30.56° C 56% 1013.6 hPa 0 mm - - -
1787948149 30.56° C 55% 1013.9 hPa 0 mm - - -
1787947248 30.56° C 58% 1014 hPa 0 mm - - -
1787946352 30.56° C 55% 1014.1 hPa 0 mm - - -
1787945451 30° C 57% 1014.4 hPa 0 mm - - -
1787944560 30° C 57% 1014.6 hPa 0 mm - - -
1787943642 30° C 58% 1014.7 hPa 0 mm - - -
1787942740 29.44° C 63% 1014.7 hPa 0 mm - - -
1787941844 28.89° C 61% 1014.9 hPa 0 mm - - -
1787940938 29.44° C 57% 1014.9 hPa 0 mm - - -
1787940036 29.44° C 65% 1015 hPa 0 mm - - -
1787939135 28.89° C 63% 1015.1 hPa 0 mm - - -
1787938234 28.89° C 63% 1015.2 hPa 0 mm - - -
1787937351 28.89° C 68% 1015.3 hPa 0 mm - - -
1787936429 28.33° C 65% 1015.4 hPa 0 mm - - -
1787935530 27.22° C 71% 1015.5 hPa 0 mm - - -
1787934627 28.33° C 69% 1015.4 hPa 0 mm - - -
1787933725 28.33° C 68% 1015.4 hPa 0 mm - - -
1787932820 27.78° C 69% 1015.5 hPa 0 mm - - -
1787931922 27.78° C 70% 1015.5 hPa 0 mm - - -
1787931022 27.78° C 73% 1015.5 hPa 0 mm - - -
1787930115 27.22° C 78% 1015.5 hPa 0 mm - - -

* Rain latest hour (hover to see other rain measurements)
** Current wind speed in m/s (hover to see current wind gust speed)